TimeAKST,TemperatureF,Dew PointF,Humidity,Sea Level PressureIn,VisibilityMPH,Wind Direction,Wind SpeedMPH,Gust SpeedMPH,PrecipitationIn,Events,Conditions,WindDirDegrees,DateUTC
12:53 AM,30.0,27.0,88,29.99,10.0,Calm,Calm,-,N/A,,Clear,0,2013-01-05 09:53:00
1:53 AM,36.0,23.0,59,29.96,10.0,NE,13.8,25.3,N/A,,Overcast,40,2013-01-05 10:53:00
3:53 AM,35.1,21.0,57,29.91,10.0,NE,19.6,31.1,N/A,,Mostly Cloudy,40,2013-01-05 12:53:00
4:53 AM,35.1,21.0,57,29.88,10.0,NNE,17.3,32.2,N/A,,Overcast,30,2013-01-05 13:53:00
5:53 AM,35.1,19.9,54,29.85,10.0,NE,18.4,35.7,0.01,,Overcast,50,2013-01-05 14:53:00
6:53 AM,35.1,19.9,54,29.83,10.0,NE,23.0,33.4,N/A,,Overcast,40,2013-01-05 15:53:00
7:53 AM,34.0,19.9,56,29.82,10.0,NE,19.6,33.4,N/A,,Overcast,40,2013-01-05 16:53:00
8:53 AM,34.0,19.9,56,29.81,10.0,NE,21.9,35.7,N/A,,Overcast,40,2013-01-05 17:53:00
9:53 AM,35.1,19.9,54,29.79,10.0,NE,23.0,31.1,N/A,,Overcast,40,2013-01-05 18:53:00
10:53 AM,34.0,19.9,56,29.78,10.0,NE,19.6,26.5,N/A,,Overcast,50,2013-01-05 19:53:00
11:53 AM,35.1,19.9,54,29.75,10.0,NE,17.3,24.2,N/A,,Overcast,50,2013-01-05 20:53:00
12:53 PM,35.1,19.9,54,29.72,10.0,NE,18.4,25.3,N/A,,Overcast,50,2013-01-05 21:53:00
1:53 PM,35.1,19.9,54,29.69,10.0,NE,23.0,27.6,N/A,,Overcast,40,2013-01-05 22:53:00
2:53 PM,35.1,19.9,54,29.67,10.0,NE,15.0,27.6,N/A,,Scattered Clouds,40,2013-01-05 23:53:00
3:53 PM,35.1,19.9,54,29.67,10.0,NE,16.1,25.3,N/A,,Overcast,40,2013-01-06 00:53:00
4:53 PM,34.0,19.9,56,29.66,10.0,NE,18.4,24.2,N/A,,Overcast,50,2013-01-06 01:53:00
5:53 PM,34.0,21.0,59,29.66,10.0,NE,12.7,26.5,N/A,,Overcast,50,2013-01-06 02:53:00
6:53 PM,34.0,21.9,61,29.66,10.0,NE,4.6,-,N/A,,Overcast,50,2013-01-06 03:53:00
7:53 PM,34.0,21.9,61,29.65,10.0,North,3.5,16.1,N/A,,Overcast,10,2013-01-06 04:53:00
8:53 PM,32.0,23.0,69,29.65,10.0,NE,6.9,-,0.00,,Overcast,40,2013-01-06 05:53:00
9:37 PM,32.0,24.8,75,29.65,10.0,NNE,3.5,-,N/A,,Overcast,30,2013-01-06 06:37:00
9:53 PM,32.0,24.1,73,29.65,10.0,NE,3.5,-,N/A,,Overcast,50,2013-01-06 06:53:00
10:53 PM,32.0,24.1,73,29.66,8.0,NE,4.6,-,0.00,Snow,Light Snow,50,2013-01-06 07:53:00
11:04 PM,30.2,24.8,80,29.66,7.0,ENE,3.5,-,0.00,Snow,Light Snow,70,2013-01-06 08:04:00
11:53 PM,30.9,27.0,85,29.66,5.0,NE,3.5,-,0.00,Snow,Light Snow,40,2013-01-06 08:53:00